Location: Maccacari
(45.1333°N, 11.1333°E)
Time: 01:49:15
(UTC+00:00)

A-11 Canister half - Pass Details

Date: 21 January 2021
Orbit: 1525 x 1684 km, 47.3° (Epoch: 07 March)

Event Time Altitude Azimuth Distance (km) Brightness Sun altitude
Rises 21:46:36 0° 293° (WNW) 4,808 12.1 -57.2°
Reaches altitude 10° 21:50:06 10° 284° (WNW) 3,844 11.4 -57.6°
Enters shadow 21:51:57 16° 276° (W) 3,397 11.0 -57.9°
Maximum altitude 21:58:16 31° 227° (SW) 2,587 - -58.6°
Drops below altitude 10° 22:06:38 10° 170° (S) 3,920 - -59.6°
Sets 22:10:17 0° 161° (SSE) 4,916 - -60.0°
